Powrót do katalogu

FENGYUN 1C DEB

AktywnySSO
NORAD 31509·DEBRIS·🇨🇳 China

Wystrzelony May 10, 1999 z Taiyuan Satellite Launch Center

Loading…

Następne Przeloty (najbliższe 24 godziny)

TLE

ŚwieżeSource: Space-Track

Epoka: Sep 13, 2026, 14:16 UTC

1 31509U 99025BWY 26256.59482541  .00002399  00000-0  15167-2 0  9997
2 31509  99.0383  15.4579 0193390 184.9295 174.9967 13.96238782977966

Śledź FENGYUN 1C DEB w czasie rzeczywistym z AllMySat

Download on the App Store